Time,TemperatureF,DewpointF,PressureIn,WindDirection,WindDirectionDegrees,WindSpeedMPH,WindSpeedGustMPH,Humidity,HourlyPrecipIn,Conditions,Clouds,dailyrainin,SoftwareType,DateUTC
2013-12-17 00:22:00,38.0,38.0,30.42,WNW,291,0.0,0.0,99,0.00,,,0.00,,2013-12-17 06:22:00,
2013-12-17 00:32:00,38.0,38.0,30.42,WNW,291,0.0,0.0,99,0.00,,,0.00,,2013-12-17 06:32:00,
2013-12-17 00:42:00,38.0,38.0,30.42,WNW,291,0.0,0.0,99,0.00,,,0.00,,2013-12-17 06:42:00,
2013-12-17 00:52:00,38.0,38.0,30.42,WNW,291,0.0,0.0,99,0.00,,,0.00,,2013-12-17 06:52:00,
2013-12-17 01:21:00,36.0,36.0,30.41,WNW,291,0.0,0.0,99,0.00,,,0.00,,2013-12-17 07:21:00,
2013-12-17 01:52:00,35.0,35.0,30.40,WNW,291,0.0,0.0,100,0.00,,,0.00,,2013-12-17 07:52:00,
2013-12-17 02:11:00,35.0,35.0,30.40,WNW,291,0.0,0.0,100,0.00,,,0.00,,2013-12-17 08:11:00,
2013-12-17 02:21:00,35.0,35.0,30.40,WNW,291,0.0,0.0,100,0.00,,,0.00,,2013-12-17 08:21:00,
2013-12-17 02:52:00,35.0,35.0,30.41,WNW,291,0.0,0.0,100,0.00,,,0.00,,2013-12-17 08:52:00,
2013-12-17 03:11:00,34.0,34.0,30.42,WNW,291,0.0,0.0,100,0.00,,,0.00,,2013-12-17 09:11:00,
2013-12-17 03:22:00,34.0,34.0,30.42,WNW,291,0.0,0.0,100,0.00,,,0.00,,2013-12-17 09:22:00,
2013-12-17 03:53:00,34.0,34.0,30.43,WNW,291,0.0,0.0,100,0.00,,,0.00,,2013-12-17 09:53:00,
2013-12-17 04:20:00,33.0,33.0,30.43,WNW,291,0.0,0.0,100,0.00,,,0.00,,2013-12-17 10:20:00,
2013-12-17 04:23:00,34.0,34.0,30.42,WNW,291,0.0,0.0,100,0.00,,,0.00,,2013-12-17 10:23:00,
2013-12-17 04:43:00,33.0,33.0,30.43,WNW,291,0.0,0.0,100,0.00,,,0.00,,2013-12-17 10:43:00,
2013-12-17 04:52:00,33.0,33.0,30.43,WNW,291,0.0,0.0,100,0.00,,,0.00,,2013-12-17 10:52:00,
2013-12-17 05:02:00,33.0,33.0,30.43,WNW,291,0.0,0.0,100,0.00,,,0.00,,2013-12-17 11:02:00,
2013-12-17 05:11:00,33.0,33.0,30.43,WNW,291,0.0,0.0,100,0.00,,,0.00,,2013-12-17 11:11:00,
2013-12-17 05:52:00,32.0,32.0,30.45,WNW,291,0.0,0.0,100,0.00,,,0.00,,2013-12-17 11:52:00,
2013-12-17 06:02:00,32.0,32.0,30.45,WNW,291,0.0,0.0,100,0.00,,,0.00,,2013-12-17 12:02:00,
2013-12-17 06:12:00,32.0,32.0,30.45,WNW,291,0.0,0.0,100,0.00,,,0.00,,2013-12-17 12:12:00,
2013-12-17 06:22:00,32.0,32.0,30.45,WNW,291,0.0,0.0,100,0.00,,,0.00,,2013-12-17 12:22:00,
2013-12-17 06:52:00,33.0,33.0,30.46,WNW,291,0.0,0.0,100,0.00,,,0.00,,2013-12-17 12:52:00,
2013-12-17 07:11:00,33.0,33.0,30.47,WNW,291,0.0,0.0,100,0.00,,,0.00,,2013-12-17 13:11:00,
2013-12-17 07:21:00,33.0,33.0,30.47,WNW,291,0.0,0.0,100,0.00,,,0.00,,2013-12-17 13:21:00,
2013-12-17 07:52:00,33.0,33.0,30.47,WNW,291,0.0,0.0,100,0.00,,,0.00,,2013-12-17 13:52:00,
2013-12-17 08:11:00,33.0,33.0,30.47,WNW,291,0.0,0.0,100,0.00,,,0.00,,2013-12-17 14:11:00,
2013-12-17 08:21:00,33.0,33.0,30.47,WNW,291,0.0,0.0,100,0.00,,,0.00,,2013-12-17 14:21:00,
2013-12-17 08:52:00,38.0,38.0,30.46,WNW,291,0.0,0.0,100,0.00,,,0.00,,2013-12-17 14:52:00,
2013-12-17 09:21:00,41.0,41.0,30.46,WNW,291,0.0,0.0,100,0.00,,,0.00,,2013-12-17 15:21:00,
2013-12-17 09:44:00,46.0,46.0,30.45,WNW,291,0.0,0.0,100,0.00,,,0.00,,2013-12-17 15:44:00,
2013-12-17 09:53:00,46.0,46.0,30.45,WNW,291,0.0,0.0,100,0.00,,,0.00,,2013-12-17 15:53:00,
2013-12-17 10:23:00,51.0,50.0,30.43,West,280,0.0,0.0,96,0.00,,,0.00,,2013-12-17 16:23:00,
2013-12-17 10:33:00,51.0,50.0,30.43,West,280,0.0,0.0,96,0.00,,,0.00,,2013-12-17 16:33:00,
2013-12-17 10:52:00,57.0,51.0,30.40,WSW,244,0.0,2.0,81,0.00,,,0.00,,2013-12-17 16:52:00,
2013-12-17 11:12:00,58.0,51.0,30.39,West,281,1.0,5.0,78,0.00,,,0.00,,2013-12-17 17:12:00,
2013-12-17 11:23:00,58.0,51.0,30.39,West,281,1.0,5.0,78,0.00,,,0.00,,2013-12-17 17:23:00,
2013-12-17 11:52:00,61.0,50.0,30.35,NW,322,0.0,8.0,66,0.00,,,0.00,,2013-12-17 17:52:00,
2013-12-17 12:21:00,62.0,47.0,30.32,North,11,3.0,8.0,57,0.00,,,0.00,,2013-12-17 18:21:00,
2013-12-17 12:52:00,64.0,45.0,30.30,WSW,257,3.0,7.0,50,0.00,,,0.00,,2013-12-17 18:52:00,
2013-12-17 13:22:00,66.0,43.0,30.28,North,5,3.0,7.0,43,0.00,,,0.00,,2013-12-17 19:22:00,
2013-12-17 13:42:00,65.0,44.0,30.27,North,353,1.0,5.0,47,0.00,,,0.00,,2013-12-17 19:42:00,
2013-12-17 13:52:00,65.0,44.0,30.27,North,353,1.0,5.0,47,0.00,,,0.00,,2013-12-17 19:52:00,
2013-12-17 14:22:00,67.0,44.0,30.26,North,350,2.0,7.0,43,0.00,,,0.00,,2013-12-17 20:22:00,
2013-12-17 14:52:00,67.0,46.0,30.25,NNE,25,0.0,0.0,46,0.00,,,0.00,,2013-12-17 20:52:00,
2013-12-17 15:02:00,67.0,46.0,30.25,NNE,25,0.0,0.0,46,0.00,,,0.00,,2013-12-17 21:02:00,
2013-12-17 15:22:00,67.0,44.0,30.24,NNW,342,0.0,2.0,44,0.00,,,0.00,,2013-12-17 21:22:00,
2013-12-17 15:53:00,66.0,44.0,30.24,North,350,0.0,3.0,45,0.00,,,0.00,,2013-12-17 21:53:00,
2013-12-17 16:23:00,65.0,46.0,30.26,NW,306,0.0,2.0,50,0.00,,,0.00,,2013-12-17 22:23:00,
2013-12-17 16:53:00,64.0,46.0,30.27,NW,311,0.0,0.0,52,0.00,,,0.00,,2013-12-17 22:53:00,
2013-12-17 17:03:00,64.0,46.0,30.27,NW,311,0.0,0.0,52,0.00,,,0.00,,2013-12-17 23:03:00,
2013-12-17 17:11:00,64.0,46.0,30.27,NW,311,0.0,0.0,52,0.00,,,0.00,,2013-12-17 23:11:00,
2013-12-17 17:22:00,64.0,46.0,30.27,NW,311,0.0,0.0,52,0.00,,,0.00,,2013-12-17 23:22:00,
2013-12-17 17:53:00,57.0,46.0,30.30,NW,311,0.0,0.0,67,0.00,,,0.00,,2013-12-17 23:53:00,
2013-12-17 18:52:00,51.0,46.0,30.33,NW,311,0.0,0.0,84,0.00,,,0.00,,2013-12-18 00:52:00,
2013-12-17 19:11:00,50.0,46.0,30.34,NW,311,0.0,0.0,87,0.00,,,0.00,,2013-12-18 01:11:00,
2013-12-17 19:22:00,50.0,46.0,30.34,NW,311,0.0,0.0,87,0.00,,,0.00,,2013-12-18 01:22:00,
2013-12-17 19:52:00,47.0,45.0,30.36,NW,311,0.0,0.0,92,0.00,,,0.00,,2013-12-18 01:52:00,
2013-12-17 20:11:00,47.0,45.0,30.37,NW,311,0.0,0.0,94,0.00,,,0.00,,2013-12-18 02:11:00,
2013-12-17 20:21:00,47.0,45.0,30.37,NW,311,0.0,0.0,94,0.00,,,0.00,,2013-12-18 02:21:00,
2013-12-17 20:52:00,45.0,44.0,30.38,NW,311,0.0,0.0,96,0.00,,,0.00,,2013-12-18 02:52:00,
2013-12-17 21:22:00,44.0,43.0,30.39,NW,311,0.0,0.0,96,0.00,,,0.00,,2013-12-18 03:22:00,
2013-12-17 21:53:00,44.0,43.0,30.40,NW,311,0.0,0.0,97,0.00,,,0.00,,2013-12-18 03:53:00,
2013-12-17 22:23:00,43.0,42.0,30.41,NW,311,0.0,0.0,98,0.00,,,0.00,,2013-12-18 04:23:00,
2013-12-17 22:43:00,43.0,42.0,30.41,NW,311,0.0,0.0,98,0.00,,,0.00,,2013-12-18 04:43:00,
2013-12-17 22:52:00,43.0,42.0,30.41,NW,311,0.0,0.0,98,0.00,,,0.00,,2013-12-18 04:52:00,
2013-12-17 23:22:00,42.0,41.0,30.41,NW,311,0.0,0.0,98,0.00,,,0.00,,2013-12-18 05:22:00,
2013-12-17 23:52:00,41.0,40.0,30.41,NW,311,0.0,0.0,98,0.00,,,0.00,,2013-12-18 05:52:00,